Fort Payne, AL

4:22 AM CST on November 13, 2019 (GMT -0600)
Fort Payne

Weather History for K4A9 - October, 2019

Change the Weather History Date:

Wednesday, October 23, 2019

  Actual Average (KRMG) Record (KRMG)
Temperature  
Mean Temperature 52 °F -  
Max Temperature 68 °F 71 °F 84 °F (2001)
Min Temperature 35 °F 46 °F 32 °F (1997)
Degree Days  
Heating Degree Days 14    
Growing Degree Days 2 (Base 50)    
Moisture  
Dew Point 37 °F    
Average Humidity 72    
Maximum Humidity 100    
Minimum Humidity 23    
Precipitation  
Precipitation 0.00 in - - ()
Sea Level Pressure  
Sea Level Pressure 30.17 in    
Wind  
Wind Speed 3 mph (NE)    
Max Wind Speed 8 mph    
Max Gust Speed -    
Visibility 10 miles    
Events      
Averages and records for this station are not official NWS values.
T = Trace of Precipitation, MM = Missing Value Source: NWS Daily Summary

Daily Weather History Graph

Daily Weather History Graph

Search for Another Location

Airport or City:

Astronomy

Oct. 23, 2019 Rise Set
Actual Time 6:54 AM CDT 5:59 PM CDT
Civil Twilight 6:29 AM CDT 6:24 PM CDT
Nautical Twilight 5:59 AM CDT 6:53 PM CDT
Astronomical Twilight 5:30 AM CDT 7:23 PM CDT
Moon 1:31 AM CDT (10/23) 3:32 PM CDT (10/23)
Length of Visible Light 11h 55m
Length of Day
11h 04m
Waning Crescent, 26% of the Moon is Illuminated
Oct 23
Waning Crescent
Oct 27
New
Nov 4
First Quarter
Nov 12
Full
Nov 19
Last Quarter

Hourly Weather History & Observations

Time (CDT) Temp. Windchill Dew Point Humidity Pressure Visibility Wind Dir Wind Speed Gust Speed Precip Events Conditions
12:15 AM 43.9 °F 42.3 °F 42.4 °F 95% 30.11 in 10.0 mi East 3.5 mph - N/A   Clear
12:35 AM 43.3 °F 41.7 °F 42.3 °F 96% 30.11 in 10.0 mi NNE 3.5 mph - N/A   Clear
12:55 AM 42.6 °F - 41.9 °F 97% 30.12 in 10.0 mi Calm Calm - N/A   Clear
1:15 AM 41.5 °F 39.6 °F 41.2 °F 99% 30.12 in 10.0 mi NNE 3.5 mph - N/A   Clear
1:35 AM 40.1 °F - 39.6 °F 98% 30.13 in 10.0 mi Calm Calm - N/A   Clear
1:55 AM 41.0 °F - 40.5 °F 98% 30.14 in 10.0 mi Calm Calm - N/A   Clear
2:15 AM 40.8 °F - 40.3 °F 98% 30.14 in 10.0 mi Calm Calm - N/A   Clear
2:35 AM 39.9 °F - 39.6 °F 99% 30.14 in 10.0 mi Calm Calm - N/A   Clear
2:55 AM 39.2 °F 37.0 °F 38.8 °F 99% 30.14 in 10.0 mi North 3.5 mph - N/A   Clear
3:15 AM 39.4 °F 37.2 °F 39.0 °F 99% 30.13 in 10.0 mi NNE 3.5 mph - N/A   Clear
3:35 AM 38.5 °F 36.1 °F 38.1 °F 99% 30.13 in 10.0 mi NNE 3.5 mph - N/A   Clear
3:55 AM 37.9 °F - 37.6 °F 99% 30.14 in 10.0 mi Calm Calm - N/A   Clear
4:15 AM 38.5 °F - 38.1 °F 99% 30.14 in 10.0 mi Calm Calm - N/A   Clear
4:35 AM 37.8 °F - 37.6 °F 99% 30.14 in 10.0 mi Calm Calm - N/A   Clear
4:55 AM 37.4 °F 34.9 °F 37.2 °F 99% 30.15 in 10.0 mi NNE 3.5 mph - N/A   Clear
5:15 AM 36.5 °F 33.9 °F 36.3 °F 99% 30.16 in 10.0 mi NNE 3.5 mph - N/A   Clear
5:35 AM 36.7 °F 34.1 °F 36.3 °F 99% 30.16 in 10.0 mi NNE 3.5 mph - N/A   Clear
5:55 AM 36.5 °F 32.7 °F 36.3 °F 99% 30.16 in 10.0 mi NNE 4.6 mph - N/A   Clear
6:15 AM 36.3 °F 33.7 °F 36.1 °F 99% 30.17 in 2.0 mi NNE 3.5 mph - N/A   Scattered Clouds
6:35 AM 36.1 °F 33.5 °F 36.1 °F 100% 30.17 in 5.0 mi NNE 3.5 mph - N/A   Clear
6:55 AM 35.4 °F - 35.4 °F 100% 30.17 in 10.0 mi Calm Calm - N/A   Clear
7:15 AM 35.6 °F - 35.6 °F 100% 30.18 in 10.0 mi Calm Calm - N/A   Clear
7:35 AM 36.3 °F 33.7 °F 36.3 °F 100% 30.18 in 10.0 mi North 3.5 mph - N/A   Clear
7:55 AM 38.3 °F - 38.1 °F 99% 30.19 in 10.0 mi Calm Calm - N/A   Clear
8:15 AM 41.5 °F - 40.3 °F 95% 30.19 in 10.0 mi Calm Calm - N/A   Clear
8:35 AM 43.5 °F 41.9 °F 41.4 °F 92% 30.19 in 7.0 mi NNE 3.5 mph - N/A   Clear
8:55 AM 46.2 °F - 43.2 °F 89% 30.20 in 10.0 mi Calm Calm - N/A   Clear
9:15 AM 48.4 °F - 43.5 °F 83% 30.20 in 10.0 mi Calm Calm - N/A   Clear
9:35 AM 51.8 °F - 43.3 °F 73% 30.20 in 10.0 mi Calm Calm - N/A   Clear
9:55 AM 53.8 °F - 39.4 °F 58% 30.21 in 10.0 mi NE 4.6 mph - N/A   Clear
10:15 AM 56.7 °F - 39.6 °F 53% 30.21 in 10.0 mi East 3.5 mph - N/A   Clear
10:35 AM 58.1 °F - 38.3 °F 48% 30.21 in 10.0 mi ENE 3.5 mph - N/A   Clear
10:55 AM 60.3 °F - 36.7 °F 41% 30.21 in 10.0 mi ENE 4.6 mph - N/A   Clear
11:15 AM 60.8 °F - 34.3 °F 37% 30.21 in 10.0 mi NE 5.8 mph - N/A   Clear
11:35 AM 62.4 °F - 35.2 °F 36% 30.21 in 10.0 mi ENE 5.8 mph - N/A   Clear
11:55 AM 62.6 °F - 34.3 °F 35% 30.20 in 10.0 mi Calm Calm - N/A   Clear
12:15 PM 63.9 °F - 33.1 °F 32% 30.20 in 10.0 mi ENE 6.9 mph - N/A   Clear
12:35 PM 63.7 °F - 32.9 °F 32% 30.19 in 10.0 mi NE 8.1 mph - N/A   Clear
12:55 PM 64.4 °F - 31.3 °F 29% 30.18 in 10.0 mi East 5.8 mph - N/A   Clear
1:15 PM 65.5 °F - 31.5 °F 28% 30.17 in 10.0 mi NNW 6.9 mph - N/A   Clear
1:35 PM 65.7 °F - 31.5 °F 28% 30.16 in 10.0 mi NE 8.1 mph - N/A   Clear
1:55 PM 66.4 °F - 30.9 °F 27% 30.16 in 10.0 mi NE 4.6 mph - N/A   Clear
2:15 PM 66.6 °F - 27.9 °F 23% 30.15 in 10.0 mi North 4.6 mph - N/A   Clear
2:35 PM 66.9 °F - 27.7 °F 23% 30.15 in 10.0 mi NE 3.5 mph - N/A   Clear
2:55 PM 67.5 °F - 28.8 °F 24% 30.15 in 10.0 mi NE 4.6 mph - N/A   Clear
3:15 PM 67.1 °F - 31.3 °F 26% 30.14 in 10.0 mi NNE 6.9 mph - N/A   Clear
3:35 PM 66.9 °F - 29.3 °F 24% 30.14 in 10.0 mi Calm Calm - N/A   Clear
3:55 PM 68.4 °F - 32.9 °F 27% 30.14 in 10.0 mi Calm Calm - N/A   Clear
4:15 PM 67.6 °F - 33.8 °F 29% 30.14 in 10.0 mi SSE 5.8 mph - N/A   Clear
4:35 PM 67.5 °F - 31.8 °F 27% 30.14 in 10.0 mi SE 5.8 mph - N/A   Clear
4:55 PM 66.7 °F - 34.0 °F 30% 30.14 in 10.0 mi SE 3.5 mph - N/A   Clear
5:15 PM 65.7 °F - 32.7 °F 29% 30.14 in 10.0 mi SE 3.5 mph - N/A   Clear
6:15 PM 55.9 °F - 39.6 °F 54% 30.16 in 10.0 mi Calm Calm - N/A   Clear
6:35 PM 53.4 °F - 41.2 °F 63% 30.16 in 10.0 mi Calm Calm - N/A   Clear
6:55 PM 51.3 °F - 41.9 °F 70% 30.17 in 10.0 mi Calm Calm - N/A   Clear
7:15 PM 49.3 °F - 42.4 °F 77% 30.18 in 10.0 mi Calm Calm - N/A   Clear
7:55 PM 46.2 °F - 41.4 °F 83% 30.19 in 10.0 mi Calm Calm - N/A   Clear
8:15 PM 45.7 °F 44.4 °F 41.4 °F 85% 30.19 in 10.0 mi NNE 3.5 mph - N/A   Clear
8:35 PM 44.4 °F 42.0 °F 39.7 °F 84% 30.19 in 10.0 mi NE 4.6 mph - N/A   Clear
8:55 PM 43.9 °F 41.3 °F 40.1 °F 87% 30.19 in 10.0 mi NNE 4.6 mph - N/A   Clear
9:15 PM 42.6 °F 40.9 °F 39.2 °F 88% 30.20 in 10.0 mi NE 3.5 mph - N/A   Clear
9:35 PM 42.1 °F 39.2 °F 39.2 °F 90% 30.21 in 10.0 mi NNE 4.6 mph - N/A   Clear
9:55 PM 41.5 °F 39.6 °F 39.2 °F 91% 30.21 in 10.0 mi NE 3.5 mph - N/A   Clear
10:15 PM 41.0 °F - 39.2 °F 93% 30.21 in 10.0 mi Calm Calm - N/A   Clear
10:35 PM 40.5 °F 38.4 °F 38.7 °F 93% 30.21 in 10.0 mi NNE 3.5 mph - N/A   Clear
10:55 PM 39.7 °F 35.6 °F 38.3 °F 95% 30.21 in 10.0 mi NNE 5.8 mph - N/A   Clear
11:15 PM 39.7 °F 36.5 °F 38.5 °F 95% 30.21 in 10.0 mi NE 4.6 mph - N/A   Clear
11:35 PM 39.4 °F 37.2 °F 38.1 °F 95% 30.21 in 10.0 mi North 3.5 mph - N/A   Clear